| time (UTC) | temp C | wind direction | speed KPH | gust KPH | rain 1hr cm | rain 24hr cm | rain mn cm | humidity % | barometer mb |
| 20260507220041 | 1 | 207 | 0.0 | 0.0 | 0.00 | 0.00 | 0.00 | 72 | 1020.1 |
| 20260507214535 | 1 | 207 | 0.0 | 0.0 | 0.00 | 0.00 | 0.00 | 71 | 1020.0 |
| 20260507213033 | 1 | 207 | 0.0 | 0.0 | 0.00 | 0.00 | 0.00 | 72 | 1019.9 |
| 20260507211533 | 1 | 209 | 0.0 | 0.0 | 0.00 | 0.00 | 0.00 | 71 | 1019.7 |
| 20260507210028 | 2 | 209 | 0.0 | 0.0 | 0.00 | 0.00 | 0.00 | 68 | 1019.7 |
| 20260507204518 | 2 | 209 | 0.0 | 1.6 | 0.00 | 0.00 | 0.00 | 67 | 1019.5 |
| 20260507203015 | 2 | 209 | 0.0 | 1.6 | 0.00 | 0.00 | 0.00 | 68 | 1019.4 |
| 20260507201509 | 3 | 209 | 0.0 | 1.6 | 0.00 | 0.00 | 0.00 | 66 | 1019.2 |
| 20260507200007 | 4 | 209 | 0.0 | 0.0 | 0.00 | 0.00 | 0.00 | 61 | 1019.2 |
| 20260507194602 | 5 | 192 | 0.0 | 0.0 | 0.00 | 0.00 | 0.00 | 64 | 1019.1 |
| 20260507193056 | 5 | 191 | 0.0 | 0.0 | 0.00 | 0.00 | 0.00 | 63 | 1018.9 |
| 20260507191554 | 6 | 192 | 0.0 | 0.0 | 0.00 | 0.00 | 0.00 | 56 | 1018.7 |
| 20260507190057 | 8 | 192 | 0.0 | 0.0 | 0.00 | 0.00 | 0.00 | 45 | 1018.4 |
| 20260507184547 | 10 | 191 | 0.0 | 0.0 | 0.00 | 0.00 | 0.00 | 36 | 1018.2 |
| 20260507183053 | 12 | 189 | 0.0 | 3.2 | 0.00 | 0.00 | 0.00 | 28 | 1017.9 |
| 20260507181535 | 13 | 161 | 1.6 | 11.3 | 0.00 | 0.00 | 0.00 | 25 | 1018.0 |
| 20260507180030 | 13 | 194 | 3.2 | 8.0 | 0.00 | 0.00 | 0.00 | 25 | 1017.9 |
| 20260507174532 | 13 | 189 | 3.2 | 8.0 | 0.00 | 0.00 | 0.00 | 26 | 1017.7 |
| 20260507173036 | 14 | 169 | 1.6 | 11.3 | 0.00 | 0.00 | 0.00 | 26 | 1017.7 |
| 20260507171517 | 14 | 158 | 0.0 | 8.0 | 0.00 | 0.00 | 0.00 | 26 | 1017.5 |
| 20260507170019 | 15 | 181 | 6.4 | 9.7 | 0.00 | 0.00 | 0.00 | 26 | 1017.4 |
| 20260507164519 | 14 | 177 | 8.0 | 14.5 | 0.00 | 0.00 | 0.00 | 26 | 1017.4 |
| 20260507163005 | 15 | 288 | 4.8 | 16.1 | 0.00 | 0.00 | 0.00 | 26 | 1017.2 |
| 20260507161605 | 15 | 176 | 4.8 | 16.1 | 0.00 | 0.00 | 0.00 | 28 | 1017.2 |
| 20260507160056 | 15 | 284 | 9.7 | 16.1 | 0.00 | 0.00 | 0.00 | 26 | 1017.2 |
| 20260507154556 | 15 | 165 | 8.0 | 22.5 | 0.00 | 0.00 | 0.00 | 28 | 1017.2 |
| 20260507153047 | 15 | 137 | 8.0 | 17.7 | 0.00 | 0.00 | 0.00 | 27 | 1017.1 |
| 20260507151545 | 15 | 167 | 12.9 | 19.3 | 0.00 | 0.00 | 0.00 | 27 | 1017.1 |
| 20260507150043 | 15 | 173 | 8.0 | 16.1 | 0.00 | 0.00 | 0.00 | 26 | 1017.1 |
| 20260507144537 | 15 | 217 | 12.9 | 22.5 | 0.00 | 0.00 | 0.00 | 26 | 1016.9 |
| 20260507143030 | 15 | 179 | 9.7 | 22.5 | 0.00 | 0.00 | 0.00 | 26 | 1016.8 |
| 20260507141525 | 15 | 191 | 11.3 | 20.9 | 0.00 | 0.00 | 0.00 | 26 | 1016.8 |
| 20260507140022 | 15 | 157 | 9.7 | 17.7 | 0.00 | 0.00 | 0.00 | 26 | 1016.8 |
| 20260507134516 | 15 | 135 | 9.7 | 25.7 | 0.00 | 0.00 | 0.00 | 28 | 1016.7 |
| 20260507133012 | 15 | 218 | 8.0 | 16.1 | 0.00 | 0.00 | 0.00 | 26 | 1016.7 |
| 20260507131517 | 15 | 195 | 11.3 | 27.4 | 0.00 | 0.00 | 0.00 | 26 | 1016.7 |
| 20260507130005 | 15 | 238 | 11.3 | 32.2 | 0.00 | 0.00 | 0.00 | 26 | 1016.6 |
| 20260507124605 | 15 | 240 | 8.0 | 29.0 | 0.00 | 0.00 | 0.00 | 26 | 1016.5 |
| 20260507123054 | 15 | 208 | 6.4 | 14.5 | 0.00 | 0.00 | 0.00 | 26 | 1016.5 |
| 20260507121552 | 15 | 245 | 0.0 | 16.1 | 0.00 | 0.00 | 0.00 | 29 | 1016.4 |
| 20260507120046 | 15 | 167 | 1.6 | 17.7 | 0.00 | 0.00 | 0.00 | 27 | 1016.4 |
| 20260507114556 | 15 | 160 | 4.8 | 17.7 | 0.00 | 0.00 | 0.00 | 28 | 1016.3 |
| 20260507113059 | 15 | 226 | 1.6 | 17.7 | 0.00 | 0.00 | 0.00 | 31 | 1016.3 |
| 20260507111539 | 15 | 238 | 3.2 | 20.9 | 0.00 | 0.00 | 0.00 | 29 | 1016.3 |
| 20260507110027 | 15 | 169 | 4.8 | 16.1 | 0.00 | 0.00 | 0.00 | 30 | 1016.2 |
| 20260507104527 | 14 | 184 | 6.4 | 19.3 | 0.00 | 0.00 | 0.00 | 31 | 1016.2 |
| 20260507103021 | 14 | 186 | 9.7 | 16.1 | 0.00 | 0.00 | 0.00 | 31 | 1016.2 |
| 20260507101517 | 15 | 288 | 1.6 | 6.4 | 0.00 | 0.00 | 0.00 | 30 | 1016.1 |
| 20260507100012 | 13 | 169 | 1.6 | 14.5 | 0.00 | 0.00 | 0.00 | 31 | 1016.1 |
| 20260507094505 | 13 | 285 | 3.2 | 16.1 | 0.00 | 0.00 | 0.00 | 33 | 1015.9 |
| 20260507093001 | 13 | 167 | 9.7 | 17.7 | 0.00 | 0.00 | 0.00 | 33 | 1015.8 |
| 20260507091630 | 13 | 177 | 6.4 | 12.9 | 0.00 | 0.00 | 0.00 | 35 | 1015.8 |
| 20260507090052 | 13 | 200 | 6.4 | 12.9 | 0.00 | 0.00 | 0.00 | 37 | 1015.7 |
| 20260507084557 | 13 | 179 | 1.6 | 8.0 | 0.00 | 0.00 | 0.00 | 37 | 1015.7 |
| 20260507083043 | 12 | 175 | 8.0 | 12.9 | 0.00 | 0.00 | 0.00 | 39 | 1015.6 |
| 20260507081546 | 12 | 201 | 1.6 | 12.9 | 0.00 | 0.00 | 0.00 | 42 | 1015.6 |
| 20260507080034 | 11 | 169 | 3.2 | 12.9 | 0.00 | 0.00 | 0.00 | 45 | 1015.5 |
| 20260507074531 | 11 | 149 | 6.4 | 9.7 | 0.00 | 0.00 | 0.00 | 47 | 1015.4 |
| 20260507073025 | 11 | 201 | 0.0 | 9.7 | 0.00 | 0.00 | 0.00 | 53 | 1015.4 |
| 20260507071521 | 11 | 180 | 1.6 | 8.0 | 0.00 | 0.00 | 0.00 | 56 | 1015.3 |
| 20260507070017 | 11 | 205 | 0.0 | 1.6 | 0.00 | 0.00 | 0.00 | 57 | 1015.2 |
| 20260507064512 | 10 | 158 | 0.0 | 1.6 | 0.00 | 0.00 | 0.00 | 66 | 1015.2 |
| 20260507063009 | 10 | 152 | 0.0 | 0.0 | 0.00 | 0.00 | 0.00 | 69 | 1015.1 |
| 20260507061504 | 9 | 167 | 0.0 | 0.0 | 0.00 | 0.00 | 0.00 | 69 | 1015.1 |
| 20260507060104 | 7 | 174 | 0.0 | 0.0 | 0.00 | 0.00 | 0.00 | 69 | 1015.1 |
| 20260507054558 | 6 | 174 | 0.0 | 0.0 | 0.00 | 0.00 | 0.00 | 67 | 1015.0 |
| 20260507053052 | 5 | 176 | 0.0 | 0.0 | 0.00 | 0.00 | 0.00 | 61 | 1014.9 |
| 20260507051547 | 5 | 176 | 0.0 | 0.0 | 0.00 | 0.00 | 0.00 | 21 | 1014.6 |
| 20260507050044 | 2 | 176 | 0.0 | 0.0 | 0.00 | 0.00 | 0.00 | 28 | 1014.6 |
| 20260507044539 | 1 | 176 | 0.0 | 0.0 | 0.00 | 0.00 | 0.00 | 12 | 1014.6 |
| 20260507043043 | 0 | 176 | 0.0 | 0.0 | 0.00 | 0.00 | 0.00 | 15 | 1014.5 |
| 20260507041530 | -1 | 176 | 0.0 | 0.0 | 0.00 | 0.00 | 0.00 | 9 | 1014.4 |
| 20260507040026 | -1 | 176 | 0.0 | 0.0 | 0.00 | 0.00 | 0.00 | 12 | 1014.4 |
| 20260507034528 | -2 | 176 | 0.0 | 0.0 | 0.00 | 0.00 | 0.00 | 15 | 1014.3 |
| 20260507033018 | -2 | 176 | 0.0 | 0.0 | 0.00 | 0.00 | 0.00 | 17 | 1014.1 |
| 20260507031517 | -1 | 176 | 0.0 | 0.0 | 0.00 | 0.00 | 0.00 | 15 | 1014.0 |
| 20260507030010 | -1 | 176 | 0.0 | 0.0 | 0.00 | 0.00 | 0.00 | 16 | 1014.0 |
| 20260507024510 | -1 | 176 | 0.0 | 0.0 | 0.00 | 0.00 | 0.00 | 20 | 1014.0 |
| 20260507023110 | -1 | 176 | 0.0 | 0.0 | 0.00 | 0.00 | 0.00 | 20 | 1013.9 |
| 20260507021556 | -1 | 176 | 0.0 | 0.0 | 0.00 | 0.00 | 0.00 | 22 | 1013.9 |
| 20260507020058 | -1 | 176 | 0.0 | 0.0 | 0.00 | 0.00 | 0.00 | 24 | 1013.7 |
| 20260507014547 | -1 | 176 | 0.0 | 0.0 | 0.00 | 0.00 | 0.00 | 23 | 1013.6 |
| 20260507013042 | -1 | 176 | 0.0 | 0.0 | 0.00 | 0.00 | 0.00 | 28 | 1013.5 |
| 20260507011545 | -1 | 176 | 0.0 | 0.0 | 0.00 | 0.00 | 0.00 | 31 | 1013.5 |
| 20260507010036 | -1 | 176 | 0.0 | 0.0 | 0.00 | 0.00 | 0.00 | 31 | 1013.4 |
| 20260507004532 | -1 | 176 | 0.0 | 0.0 | 0.00 | 0.00 | 0.00 | 25 | 1013.4 |
| 20260507003027 | -1 | 176 | 0.0 | 0.0 | 0.00 | 0.00 | 0.00 | 34 | 1013.3 |
| 20260507001558 | -1 | 176 | 0.0 | 0.0 | 0.00 | 0.00 | 0.00 | 36 | 1013.2 |
| 20260507000024 | 0 | 176 | 0.0 | 0.0 | 0.00 | 0.00 | 0.00 | 38 | 1013.2 |
| 20260506234521 | 0 | 176 | 0.0 | 0.0 | 0.00 | 0.00 | 0.00 | 33 | 1013.1 |
| 20260506233019 | 0 | 176 | 0.0 | 0.0 | 0.00 | 0.00 | 0.00 | 41 | 1013.1 |
| 20260506231517 | 0 | 176 | 0.0 | 0.0 | 0.00 | 0.00 | 0.00 | 46 | 1013.0 |
| 20260506230012 | 0 | 176 | 0.0 | 0.0 | 0.00 | 0.00 | 0.00 | 53 | 1012.9 |
| 20260506224508 | 0 | 176 | 0.0 | 0.0 | 0.00 | 0.00 | 0.00 | 58 | 1012.8 |
| 20260506223004 | 1 | 176 | 0.0 | 0.0 | 0.00 | 0.00 | 0.00 | 62 | 1012.7 |
| 20260506221501 | 1 | 176 | 0.0 | 0.0 | 0.00 | 0.00 | 0.00 | 64 | 1012.7 |